DIESL EDKB-EDDK

Flight info

Callsign DIESL
Flight time 0h -8m
Altitude 1500
Route VP152 DCT VP154
Aircraft DA42/L-SBDFGRY/S

Departure

Time 2026-04-25 18:07
Airport Bonn-Hangelar Airfield (EDKB)

Arrival

Time 2026-04-25 17:58
Airport Cologne Bonn Airport (EDDK)
Time Latitude Longitude Altitude Speed Heading
2026-04-25 17:58 50.76775 7.16193 203 ft 0 kts 10°
2026-04-25 18:02 50.76779 7.16192 203 ft 3 kts 345°
2026-04-25 18:02 50.76821 7.16214 205 ft 12 kts 94°
2026-04-25 18:03 50.76792 7.16343 205 ft 13 kts 111°
2026-04-25 18:03 50.76763 7.16495 202 ft 16 kts 108°
2026-04-25 18:03 50.76723 7.16657 206 ft 16 kts 108°
2026-04-25 18:03 50.76726 7.16776 200 ft 5 kts 12°
2026-04-25 18:04 50.76728 7.16777 200 ft 0 kts 12°
2026-04-25 18:05 50.76766 7.16783 200 ft 8 kts 356°
2026-04-25 18:05 50.76800 7.16739 200 ft 6 kts 290°
2026-04-25 18:06 50.76801 7.16733 200 ft 0 kts 289°
2026-04-25 18:06 50.76802 7.16732 200 ft 3 kts 289°
2026-04-25 18:06 50.76885 7.16347 205 ft 65 kts 289°
2026-04-25 18:06 50.77060 7.15559 422 ft 76 kts 292°
2026-04-25 18:07 50.77239 7.14707 744 ft 85 kts 282°
2026-04-25 18:07 50.77238 7.13731 1010 ft 96 kts 270°
2026-04-25 18:07 50.77190 7.12663 1327 ft 97 kts 272°
2026-04-25 18:07 50.77173 7.11551 1507 ft 112 kts 272°
2026-04-25 18:08 50.77159 7.10171 1455 ft 137 kts 272°
2026-04-25 18:08 50.77176 7.08620 1471 ft 146 kts 280°
2026-04-25 18:08 50.77730 7.07366 1480 ft 145 kts 338°
2026-04-25 18:08 50.78696 7.07640 1523 ft 150 kts 31°
2026-04-25 18:09 50.79481 7.08858 1444 ft 157 kts 44°
2026-04-25 18:09 50.80209 7.10117 1456 ft 155 kts 45°
2026-04-25 18:09 50.80975 7.11295 1476 ft 153 kts 36°
2026-04-25 18:09 50.81254 7.11651 1477 ft 152 kts 35°
2026-04-25 18:10 50.82545 7.13265 1834 ft 133 kts 38°
2026-04-25 18:10 50.83099 7.14371 2044 ft 131 kts 59°
2026-04-25 18:10 50.83562 7.15781 1822 ft 153 kts 51°
2026-04-25 18:10 50.84254 7.17094 1767 ft 152 kts 44°
2026-04-25 18:11 50.84859 7.18442 1564 ft 158 kts 58°
2026-04-25 18:11 50.85354 7.20007 1464 ft 152 kts 57°
2026-04-25 18:11 50.85960 7.21126 1472 ft 118 kts 24°
2026-04-25 18:11 50.86702 7.21083 1202 ft 108 kts 330°
2026-04-25 18:12 50.87122 7.20660 1044 ft 108 kts 322°
2026-04-25 18:12 50.87631 7.19810 840 ft 105 kts 302°
2026-04-25 18:12 50.87779 7.18725 729 ft 101 kts 268°
2026-04-25 18:12 50.87589 7.17640 594 ft 102 kts 252°
2026-04-25 18:13 50.87291 7.16610 473 ft 104 kts 249°
2026-04-25 18:13 50.86977 7.15572 320 ft 104 kts 248°
2026-04-25 18:13 50.86692 7.14627 254 ft 81 kts 245°
2026-04-25 18:14 50.86381 7.13575 246 ft 25 kts 257°
2026-04-25 18:14 50.86432 7.13380 241 ft 18 kts 319°
2026-04-25 18:14 50.86524 7.13251 234 ft 17 kts 317°
2026-04-25 18:14 50.86604 7.13134 233 ft 13 kts 317°
2026-04-25 18:15 50.86667 7.13038 233 ft 13 kts 319°
2026-04-25 18:15 50.86745 7.12931 232 ft 16 kts 318°
2026-04-25 18:15 50.86836 7.12802 232 ft 19 kts 317°
2026-04-25 18:15 50.86935 7.12656 230 ft 20 kts 316°
2026-04-25 18:16 50.87037 7.12506 230 ft 20 kts 318°
2026-04-25 18:16 50.87137 7.12364 230 ft 16 kts 316°
2026-04-25 18:16 50.87294 7.12305 225 ft 9 kts
2026-04-25 18:17 50.87282 7.12248 224 ft 10 kts 220°
2026-04-25 18:17 50.87243 7.12205 226 ft 5 kts 354°
2026-04-25 18:17 50.87299 7.12162 225 ft 11 kts 320°
2026-04-25 18:17 50.87327 7.12092 224 ft 7 kts 177°
2026-04-25 18:18 50.87323 7.12112 224 ft 0 kts 38°